www.pogodaiklimat.ru

Погода и климат >> Архив погоды >> Польша >> Новы-Сонч


ПОГОДА в Новы-Сонч

  • Прогноз погоды в Новы-Сонч
  • Монитор погоды в Новы-Сонч

АРХИВ ПОГОДЫ в Новы-Сонч

Время (UTC), дата Ветер
(напр.,м/с)
 
Видим.   Явления Облачность Т
(С)
Тd
(С)
f
(%)
Тe
(С)
Тes
(С)
Комфортность P
(гПа)
Po
(гПа)
Тmin
(С)
Tmax
(С)
R
(мм)
R24
(мм)
S
(см)
16 10.02 Ю 4-10
{12}
12 км н/о +5.9 -1.3 60 +2 +2 1007.6 971.9
17 10.02 Ю 6-13
{17}
14 км н/о +5.9 -0.8 62 +2 +2 1006.5 970.8
18 10.02 Ю 5-13
{17}
14 км н/о +5.7 -0.8 63 +2 +2 1005.4 969.7 -2.5 +9.1
19 10.02 Ю 6-12
{16}
13 км н/о +5.3 -0.8 65 +1 +1 1004.8 969.1
20 10.02 Ю 6-13
{15}
13 км н/о +5.2 -0.6 66 +1 +1 1004.2 968.5
21 10.02 Ю 6-15
{16}
13 км н/о +5.5 -0.1 67 +1 +1 1003.3 967.7
22 10.02 ЮВ 5-12
{15}
19 км н/о +6.2 -0.3 63 +2 +2 1001.6 966.1
23 10.02 Ю 4-9
{12}
35 км н/о +6.2 -0.3 63 +3 +3 1001.9 966.4
00 11.02 Ю 2
{16}
45 км н/о +6.0 -0.1 65 +4 +4 1001.7 966.2
01 11.02 Ю 3
{8}
18 км слаб. дождь н/о +5.2 +0.9 74 +2 +2 1001.6 966.0
02 11.02 Ю 1 17 км морось н/о +4.3 +2.0 85 +3 +3 1001.1 965.4
03 11.02 Ю 3
{8}
4800 м дождь н/о +3.2 +1.9 91 -1 -1 1001.7 965.8
04 11.02 ЮЗ 1 9000 м слаб. дождь н/о +2.8 +1.9 94 +1 +1 1002.0 966.1
05 11.02 З 1 6000 м в посл. час дождь со снегом н/о +2.3 +1.6 95 0 0 1001.4 965.4
06 11.02 В 1-6
{8}
7000 м дымка н/о +2.6 +1.7 94 +1 +1 1001.9 965.9 +2.3 +6.3 2
07 11.02 ЮВ 2 6000 м дымка н/о +3.4 +2.2 92 0 0 1002.3 966.4
08 11.02 ЮЗ 1
{7}
11 км н/о +3.6 +2.0 89 +2 +2 1002.9 967.0
09 11.02 Ю 3
{7}
40 км н/о +5.2 +1.1 75 +2 +2 1002.8 967.1
10 11.02 ЮЗ 4-10
{10}
45 км н/о +6.1 +0.2 66 +3 +3 1003.1 967.5
11 11.02 ЮЗ 5
{10}
35 км н/о +6.6 +0.1 63 +3 +3 1003.2 967.7
12 11.02 ЮЗ 5
{10}
35 км н/о +6.2 +0.1 65 +2 +2 1004.0 968.4
13 11.02 З 8-14
{14}
35 км ливневой дождь н/о +4.7 -0.5 69 -1 -1 1005.4 969.6
14 11.02 З 6
{11}
35 км н/о +4.8 -1.2 65 0 0 1006.7 970.9
15 11.02 З 4
{14}
16 км в посл. час дождь со снегом н/о +3.7 0.0 77 -1 -1 1007.7 971.7
16 11.02 З 5 6000 м ливневой дождь н/о +3.2 +0.3 81 -2 -2 1009.1 973.0
17 11.02 З 4 9000 м ливневой дождь н/о +3.3 +0.2 80 -1 -1 1009.6 973.5
18 11.02 З 4-10
{14}
18 км н/о +4.1 -0.1 74 -0 -0 1010.4 974.3 +2.3 +6.7 0.0
19 11.02 З 6
{11}
21 км в посл. час дождь со снегом н/о +2.7 -0.6 79 -3 -3 1011.6 975.3
20 11.02 З 6
{12}
21 км н/о +3.2 -1.6 71 -2 -2 1012.2 976.0
21 11.02 З 7
{12}
18 км в посл. час дождь н/о +3.5 -1.5 70 -2 -2 1013.0 976.8
22 11.02 З 4
{13}
13 км слаб. дождь н/о +2.8 -1.0 76 -2 -2 1013.3 977.0
23 11.02 З 7-12
{12}
16 км в посл. час снег н/о +2.8 -1.9 71 -3 -3 1013.6 977.3
00 12.02 З 7
{13}
35 км н/о +2.8 -2.1 70 -3 -3 1013.9 977.5 0.2
01 12.02 З 7-12
{12}
13 км ливневой дождь н/о +2.5 -1.1 77 -4 -4 1014.3 977.9
02 12.02 З 5
{12}
24 км ливневой дождь н/о +2.2 -1.2 78 -3 -3 1014.9 978.4
03 12.02 З 6
{12}
2900 м слаб. ливневой снег н/о +1.2 -0.9 86 -5 -5 1015.4 978.8
04 12.02 З 4
{10}
7000 м слаб. дождь н/о +1.1 -1.0 86 -4 -4 1016.2 979.5
05 12.02 З 6-13
{13}
12 км слаб. снег н/о +1.1 -2.3 78 -5 -5 1016.9 980.2
06 12.02 З 8-13
{13}
11 км слаб. ливневой снег н/о +0.5 -4.5 69 -7 -7 1018.0 981.2 +0.5 +4.2 0.4
07 12.02 З 5-10
{13}
35 км н/о +0.3 -5.3 66 -5 -5 1018.8 981.9
08 12.02 З 3
{9}
30 км н/о +0.7 -4.7 67 -3 -3 1019.1 982.3
09 12.02 С 3
{20}
3300 м слаб. ливневой снег н/о +0.1 -2.6 82 -4 -4 1019.8 982.9
10 12.02 СЗ 4-11
{11}
28 км в посл. час переохл. осадки (гололёд) н/о +1.0 -3.7 71 -4 -4 1020.3 983.5
11 12.02 СЗ 3
{10}
18 км слаб. ливневой снег н/о +0.8 -3.9 71 -3 -3 1020.8 983.9
12 12.02 З 4-9
{20}
2300 м слаб. снег н/о 0.0 -3.0 80 -5 -5 1021.0 984.0 0.4
13 12.02 З 3
{10}
5000 м слаб. снег н/о +0.5 -3.8 73 -4 -4 1021.4 984.5
14 12.02 З 4-12
{12}
25 км в посл. час переохл. осадки (гололёд) н/о +1.1 -5.0 64 -4 -4 1022.1 985.2
15 12.02 З 5
{12}
12 км слаб. ливневой снег н/о +0.8 -4.4 68 -5 -5 1022.8 985.9
16 12.02 З 3
{9}
14 км слаб. снег н/о +0.7 -4.3 69 -4 -4 1023.8 986.8
17 12.02 З 5
{8}
14 км слаб. ливневой дождь н/о +1.0 -4.2 68 -4 -4 1024.5 987.5
18 12.02 СЗ 3-8
{13}
7000 м слаб. снег н/о +1.1 -4.0 69 -3 -3 1025.7 988.7 -0.9 +1.2 0.4
19 12.02 З 5-12
{13}
15 км слаб. ливневой снег н/о +1.2 -4.7 65 -4 -4 1026.2 989.2
20 12.02 З 5-10
{13}
17 км слаб. ливневой снег н/о +1.4 -4.9 63 -4 -4 1027.2 990.2
21 12.02 З 5
{13}
22 км н/о +1.2 -4.7 65 -4 -4 1028.0 990.9
22 12.02 З 4
{10}
21 км н/о +1.1 -4.6 66 -4 -4 1028.8 991.7
23 12.02 З 3
{13}
19 км н/о +0.6 -4.6 68 -4 -4 1029.6 992.4
00 13.02 З 4
{13}
22 км н/о +0.6 -4.8 67 -4 -4 1030.2 993.0 0.0
01 13.02 З 3 23 км н/о +0.7 -5.1 65 -3 -3 1030.5 993.3
02 13.02 З 3 20 км н/о +0.5 -4.7 68 -4 -4 1030.9 993.6
03 13.02 З 4-9
{9}
23 км н/о +0.4 -5.0 67 -5 -5 1031.2 993.9
04 13.02 З 3 18 км н/о -0.4 -5.0 71 -5 -5 1031.5 994.1
05 13.02 З 3 21 км н/о -0.1 -5.5 67 -4 -4 1031.6 994.2
06 13.02 ЮЗ 2
{9}
22 км н/о -0.6 -5.2 71 -4 -4 1031.6 994.2 -0.7 +1.4 0.0
07 13.02 ЮЗ 2 12 км н/о -0.1 -4.5 72 -3 -3 1031.6 994.2
08 13.02 ЮЗ 2 20 км н/о +1.2 -4.9 64 -2 -2 1031.8 994.6
09 13.02 ЮЗ 3 23 км н/о +2.0 -4.7 61 -2 -2 1031.5 994.4
10 13.02 ЮЗ 5 22 км слаб. ливневой снег н/о +1.9 -3.4 68 -3 -3 1031.7 994.6
11 13.02 ЮЗ 5
{10}
30 км н/о +2.7 -3.0 66 -2 -2 1031.1 994.1
12 13.02 ЮЗ 5
{10}
35 км н/о +3.2 -2.3 67 -2 -2 1031.3 994.4 0.0
13 13.02 ЮЗ 3 23 км н/о +3.5 -2.3 66 0 0 1031.1 994.2
14 13.02 ЮЗ 5 25 км н/о +3.7 -1.7 68 -1 -1 1030.1 993.3
15 13.02 ЮЗ 4 28 км н/о +3.9 -1.3 69 -0 -0 1030.0 993.2
16 13.02 З 4
{9}
11 км н/о +3.9 -0.7 72 -0 -0 1030.8 994.0
17 13.02 З 3 4300 м ливневой дождь н/о +3.1 +0.5 83 -1 -1 1031.4 994.5
18 13.02 ЮЗ 5
{9}
11 км н/о +3.8 +0.7 80 -1 -1 1031.4 994.5 -0.7 +4.0 0.0
19 13.02 З 2 8000 м ливневой дождь н/о +4.1 +0.8 79 +1 +1 1032.0 995.2
20 13.02 З 4 9000 м ливневой дождь н/о +5.0 +1.7 79 +1 +1 1032.1 995.4
21 13.02 З 5 12 км н/о +5.3 +1.2 75 +1 +1 1032.2 995.5
22 13.02 З 5 15 км н/о +5.7 +1.0 72 +1 +1 1032.2 995.6
23 13.02 З 4 17 км н/о +5.6 +0.8 71 +2 +2 1032.4 995.7
00 14.02 З 4 20 км н/о +5.8 +0.5 69 +2 +2 1032.3 995.7 0.0
01 14.02 З 6 25 км н/о +5.9 +0.6 69 +1 +1 1032.4 995.8
02 14.02 З 5 21 км н/о +5.6 +0.6 70 +1 +1 1032.4 995.7
03 14.02 З 4
{9}
20 км н/о +5.6 +0.9 72 +2 +2 1032.6 995.9
04 14.02 З 4 18 км н/о +5.4 +0.9 73 +2 +2 1032.9 996.2
05 14.02 З 5 17 км н/о +5.4 +0.6 71 +1 +1 1032.7 996.0
06 14.02 З 4
{9}
14 км н/о +5.3 +0.5 71 +2 +2 1033.3 996.6 +3.7 +5.9 0.0 1
07 14.02 З 3-8
{8}
20 км н/о +5.6 +0.2 68 +3 +3 1033.7 997.0
08 14.02 З 4-9
{19}
23 км н/о +5.8 +0.1 67 +2 +2 1033.9 997.2
09 14.02 З 4
{19}
19 км н/о +6.0 +0.1 66 +2 +2 1034.2 997.5
10 14.02 З 3
{9}
20 км н/о +6.2 +0.3 66 +3 +3 1034.3 997.7
11 14.02 З 3
{9}
18 км н/о +6.6 +0.5 65 +4 +4 1034.0 997.4
12 14.02 З 3
{19}
16 км н/о +7.2 +0.6 63 +5 +5 1034.1 997.6
13 14.02 З 5
{9}
25 км н/о +8.1 +0.8 60 +5 +5 1033.5 997.1
14 14.02 З 5
{9}
16 км н/о +7.8 +0.7 61 +4 +4 1033.0 996.6
15 14.02 З 5
{10}
16 км н/о +7.6 +0.8 62 +4 +4 1033.2 996.8
16 14.02 З 4 15 км н/о +6.3 +0.6 67 +3 +3 1033.6 997.0
17 14.02 З 2
{8}
10 км н/о +5.7 +0.6 70 +3 +3 1034.2 997.5
18 14.02 З 3
{10}
8000 м дымка н/о +6.0 +0.5 68 +3 +3 1034.2 997.5 +5.3 +8.7
19 14.02 З 3 12 км н/о +5.9 +0.8 70 +3 +3 1034.3 997.6
20 14.02 З 1 11 км н/о +5.7 +1.0 72 +5 +5 1034.5 997.8
21 14.02 штиль 0 9000 м н/о +5.7 +1.0 72 +5 +5 1034.6 997.9
22 14.02 СЗ 1 9000 м дымка н/о +5.4 +2.0 79 +4 +4 1034.6 997.8
23 14.02 штиль 0 10 км дымка н/о +5.5 +2.5 81 +5 +5 1034.3 997.6
00 15.02 СЗ 1 8000 м дымка н/о +5.2 +2.5 83 +4 +4 1034.5 997.7
01 15.02 З 1 8000 м дымка н/о +5.1 +2.6 84 +4 +4 1034.2 997.4
02 15.02 З 1 10 км дымка н/о +5.3 +2.8 84 +4 +4 1033.7 997.0
03 15.02 СЗ 1 10 км дымка н/о +5.1 +2.8 85 +4 +4 1033.9 997.1
04 15.02 штиль 0 10 км дымка н/о +5.0 +3.0 87 +4 +4 1034.1 997.3
05 15.02 С 1 3700 м слаб. дождь н/о +4.6 +3.6 93 +3 +3 1034.1 997.3
06 15.02 штиль 0
{17}
1700 м в посл. час дождь со снегом н/о +4.0 +3.4 96 +3 +3 1034.6 997.7 +4.0 +6.1 0.6
07 15.02 штиль 0 2500 м ливневой дождь н/о +4.2 +3.8 97 +3 +3 1035.1 998.2
08 15.02 Ю 1 1700 м в посл. час дождь со снегом н/о +4.2 +3.8 97 +3 +3 1035.4 998.5
09 15.02 Ю 1 4600 м дымка н/о +5.0 +4.6 97 +4 +4 1035.4 998.6
10 15.02 ЮЗ 1 6000 м дымка н/о +5.4 +4.2 92 +4 +4 1035.4 998.6
11 15.02 СЗ 1
{15}
5000 м дымка н/о +5.6 +4.1 90 +4 +4 1034.7 998.0
12 15.02 З 2
{21}
12 км н/о +5.8 +2.4 79 +3 +3 1034.4 997.7 0.0
13 15.02 СЗ 1
{19}
14 км н/о +5.9 +2.2 77 +5 +5 1034.0 997.3
14 15.02 З 1 12 км н/о +6.6 +2.1 73 +6 +6 1033.2 996.6
15 15.02 З 2
{19}
11 км н/о +6.0 +1.7 74 +4 +4 1032.9 996.3
16 15.02 З 1
{16}
6000 м дым н/о +5.0 +1.1 76 +4 +4 1033.0 996.2
17 15.02 Ю 1 3300 м дымка н/о +3.9 +0.9 81 +3 +3 1033.2 996.3
18 15.02 Ю 1
{19}
2100 м дымка н/о +1.4 -0.1 90 -1 -1 1033.7 996.4 +1.4 +6.6 0.0
19 15.02 Ю 1 1800 м дымка н/о +1.0 +0.1 94 -1 -1 1033.7 996.4
20 15.02 штиль 0 800 м сильная пыльная буря н/о -0.3 -1.0 95 -2 -2 1033.8 996.3
21 15.02 Ю 1 1000 м сильная пыльная буря н/о -0.5 -0.8 98 -3 -3 1033.6 996.1
22 15.02 ЮЗ 1 600 м сильная пыльная буря н/о -1.2 -1.5 98 -4 -4 1033.6 996.0
23 15.02 Ю 1 1100 м пыльная буря н/о -0.9 -1.0 99 -3 -3 1033.6 996.0
00 16.02 ЮВ 1 1400 м в посл. час зёрна н/о -1.5 -1.8 98 -4 -4 1033.5 995.9
01 16.02 штиль 0 700 м сильная пыльная буря н/о -2.2 -2.5 98 -4 -4 1033.3 995.6
02 16.02 штиль 0 1700 м в посл. час зёрна н/о -1.9 -2.2 98 -3 -3 1032.8 995.1
03 16.02 штиль 0 1500 м дымка н/о -2.5 -2.9 97 -4 -4 1032.6 994.9
04 16.02 В 1 3000 м дымка н/о -2.6 -2.9 98 -5 -5 1032.8 995.0
05 16.02 штиль 0 3200 м дымка н/о -2.6 -3.0 97 -4 -4 1032.6 994.8
06 16.02 В 1 2600 м дымка н/о -3.1 -3.5 97 -6 -6 1032.9 995.1 -3.6 +1.8 1
07 16.02 штиль 0 1800 м дымка н/о -2.7 -3.1 97 -4 -4 1033.2 995.4
08 16.02 ЮВ 1 2900 м дымка н/о +0.3 -0.4 95 -2 -2 1032.5 995.1
09 16.02 Ю 1 6000 м дымка н/о +3.5 +1.0 84 +2 +2 1031.6 994.7
10 16.02 ЮЗ 1 11 км н/о +7.0 +0.6 64 +6 +6 1030.8 994.4
11 16.02 З 1 12 км н/о +9.5 +0.9 55 +9 +9 1029.9 993.8
12 16.02 СВ 1 16 км н/о +12.1 -0.8 41 +13 +13 1029.1 993.4
13 16.02 ЮЗ 1 14 км н/о +12.6 -1.7 37 +13 +13 1028.5 992.9
14 16.02 З 1 15 км н/о +13.4 -2.2 34 +14 +14 1028.0 992.5
15 16.02 штиль 0 13 км н/о +12.6 -0.3 41 +13 +13 1027.8 992.2
16 16.02 СЗ 1 5000 м дым н/о +9.7 -0.5 49 +10 +10 1028.1 992.1
17 16.02 ЮВ 1 5000 м дым н/о +7.2 -0.1 60 +7 +7 1028.9 992.6
18 16.02 Ю 2 6000 м дым н/о +5.6 -0.5 65 +3 +3 1029.2 992.7 -3.1 +13.7
19 16.02 ЮВ 1 5000 м дымка н/о +3.5 -1.1 72 +2 +2 1029.5 992.7
20 16.02 ЮВ 1 2300 м дымка н/о +1.9 -1.4 79 0 0 1029.6 992.6
21 16.02 ЮВ 2 2900 м дымка н/о +1.5 -0.7 85 -2 -2 1029.5 992.4
22 16.02 В 2 2700 м дымка н/о +0.4 -1.8 85 -3 -3 1029.4 992.2
23 16.02 ЮВ 1 2800 м дымка н/о +0.1 -1.3 90 -2 -2 1029.2 991.9
00 17.02 ЮВ 1 4000 м дымка н/о -0.2 -2.1 87 -2 -2 1028.9 991.6
01 17.02 ЮВ 3 4200 м дымка н/о -0.5 -1.3 94 -5 -5 1028.9 991.6
02 17.02 В 1 3500 м дымка н/о -1.6 -2.3 95 -4 -4 1028.9 991.4
03 17.02 ЮВ 1 3400 м дымка н/о -2.4 -3.1 95 -5 -5 1029.0 991.4
04 17.02 ЮВ 1 5000 м дымка н/о -2.3 -2.7 97 -5 -5 1029.1 991.5
05 17.02 ЮВ 1 6000 м дымка н/о -2.0 -2.4 97 -4 -4 1029.1 991.6
06 17.02 штиль 0 4300 м дымка н/о -2.7 -3.5 94 -4 -4 1029.7 992.0 -3.0 +5.6
07 17.02 В 1 4400 м дымка н/о -1.3 -1.9 96 -4 -4 1029.5 992.0
08 17.02 В 1 7000 м дымка н/о +2.3 -1.0 79 +1 +1 1029.0 992.0
09 17.02 Ю 1 10 км дымка н/о +6.0 -0.1 65 +5 +5 1028.4 991.9
10 17.02 Ю 2 15 км н/о +9.4 -0.2 51 +8 +8 1027.5 991.5
11 17.02 ЮЗ 2 18 км н/о +11.2 -1.6 41 +10 +10 1026.5 990.8
12 17.02 ЮЗ 2 23 км н/о +14.0 -1.6 34 +14 +14 1025.3 989.9
13 17.02 ЮЗ 1 23 км н/о +15.2 -2.7 29 +16 +16 1024.5 989.3
14 17.02 СЗ 1 17 км н/о +15.5 -2.5 29 +16 +16 1024.1 989.0
15 17.02 С 1 13 км н/о +14.7 -1.8 32 +15 +15 1023.9 988.7
16 17.02 ЮЗ 1 7000 м дым н/о +11.6 -1.2 41 +12 +12 1024.5 988.9
17 17.02 Ю 2 8000 м дым н/о +7.6 -0.9 55 +6 +6 1025.8 989.6

 

Местоположение метеостанции Новы-Сонч (Польша): широта 49.62 долгота 20.70 высота над уровнем моря 295 м.

В архиве по умолчанию представлена погода в Новы-Сонч за последнюю неделю. Архивные данные за месяц целиком и за предыдущие месяцы, начиная с января 2011 года, Вы можете получить, выбрав интересующий диапазон дат из раскрывающегося списка и нажав кнопку "Ввод!".


*Определитесь, кто Вы:
робот инопланетянин человек

Внимание! Время в таблицах - всемирное. Для получения местного времени необходимо прибавить поправку, которая равна 1 ч.

Смотрите также архив погоды в соседних городах и на ближайших метеорологических станциях:

Погода в Тарнове (Польша) (50 км)
Погода на Ломницком Штите (Словакия) (58 км)
Погода в Закопане (Польша) (64 км)
Погода на Каспровы-Верх (Польша) (68 км)
Погода в Попраде (Словакия) (69 км)
Погода в Попрад-Гановце (Словакия) (71 км)
Погода на Штрбске-Плесо (Словакия) (71 км)
Погода в Кросно (Польша) (76 км)
Погода в Лиешеке (Словакия) (79 км)
Погода в Прешове (Словакия) (80 км)

Пояснения к столбцам:

Ветер - указаны скорость ветра в м/с - средняя за 10 мин, порывы в срок и между сроками (в фигурных скобках) и направление, откуда дует ветер: С - северный, СВ - северо-восточный, В - восточный, ЮВ - юго-восточный, Ю - южный, ЮЗ - юго-западный, З - западный, СЗ - северо-западный.
Видимость - горизонтальная дальность видимости в метрах или километрах. При видимости от 1 до 10 км при отсутствии осадков обычно наблюдается дымка, при ухудшении видимости до 1 км и менее - туман. В сухую погоду видимость может ухудшаться дымом, пылью или мглою.
Явления - указаны атмосферные явления, наблюдавшиеся в срок или в последний час перед сроком; фигурными скобками обозначены явления, наблюдавшиеся между сроками (за 1-3 часа до срока); квадратными скобками обозначены град или гололедные отложения с указанием их диаметра в мм.
Облачность - указаны через наклонную черту общая и нижняя облачность в баллах и высота нижней границы облаков в метрах; квадратными скобками обозначены формы облаков: Ci - перистые, Cs - перисто-слоистые, Cc - перисто-кучевые, Ac - высококучевые, As - высокослоистые, Sc - слоисто-кучевые, Ns - слоисто-дождевые, Cu - кучевые, Cb - кучево-дождевые. Подробнее классификацию облаков см. в Атласе облаков (PDF).
T - Температура воздуха - температура, измеренная на высоте 2 м над землей.
Td - Температура точки росы - температура, при понижении до которой содержащийся в воздухе водяной пар достигнет насыщения.
f - Относительная влажность воздуха - влажноcть воздуха, измеренная на высоте 2 м над землей.
Te - Эффективная температура - температура, которую ощущает одетый по сезону человек в тени. Характеристика душности погоды. При расчете учитывается влияние влажности воздуха и скорости ветра на теплоощущения человека.
Tes - Эффективная температура на солнце - температура, которую ощущает человек, с поправкой на солнечный нагрев. Характеристика знойности погоды. Зависит от высоты солнца над горизонтом, облачности и скорости ветра. Ночью, в пасмурную погоду, а также при ветре 12 м/с и более поправка равна нулю.
P - Атмосферное давление - приведенное к уровню моря атмосферное давление.
Po - Атмосферное давление - измеренное на уровне метеостанции атмосферное давление.
Tmin - Минимальная температура - минимум температуры воздуха на высоте 2 м над землей.
Tmax - Максимальная температура - максимум температуры воздуха на высоте 2 м над землей.
R - Количество осадков - Количество выпавших осадков за период времени, мм. При наведении курсора мыши на число - период времени, за который выпало указанное количество осадков.
R24 - Количество осадков - Количество выпавших осадков за 24 часа, мм.
S - Снежный покров - Высота снежного покрова, см. При наведении курсора мыши на число - состояние снежного покрова и степень покрытия местности в баллах.